Location: Waning Moon II Observatory
(30.3730°N, 89.7620°W)
Time: 00:19:15
(UTC-05:00)

Meteor 1-21 - Visible Passes

Search period start: 19 April 2014 00:00
Search period end: 29 April 2014 00:00
Orbit: 846 x 887 km, 81.2° (Epoch: 17 April)

Date Brightness Start Highest point End Pass type
(mag) Time Alt. Az. Time Alt. Az. Time Alt. Az.
19 Apr 6.5 02:32:45 20° NE 02:32:45 20° NE 02:34:44 10° NNE visible
19 Apr 6.0 04:15:07 20° NW 04:15:07 20° NW 04:17:32 10° NNW visible
20 Apr 6.6 02:25:47 19° NE 02:25:47 19° NE 02:27:35 10° NNE visible
20 Apr 6.0 04:08:08 19° NW 04:08:08 19° NW 04:10:20 10° NNW visible
21 Apr 6.6 02:18:47 18° NE 02:18:47 18° NE 02:20:26 10° NNE visible
21 Apr 6.1 04:01:08 18° NW 04:01:08 18° NW 04:03:09 10° NNW visible
22 Apr 6.7 02:11:46 17° NE 02:11:46 17° NE 02:13:17 10° NNE visible
22 Apr 6.2 03:54:08 17° NW 03:54:08 17° NW 03:55:57 10° NNW visible
23 Apr 6.7 02:04:44 17° NE 02:04:44 17° NE 02:06:07 10° NNE visible
23 Apr 6.3 03:47:06 16° NW 03:47:06 16° NW 03:48:45 10° NNW visible
24 Apr 6.7 01:57:42 16° NE 01:57:42 16° NE 01:58:58 10° NNE visible
24 Apr 6.3 03:40:03 16° NW 03:40:03 16° NW 03:41:34 10° NNW visible
25 Apr 6.8 01:50:38 16° NNE 01:50:38 16° NNE 01:51:49 10° NNE visible
25 Apr 6.4 03:32:59 15° NW 03:32:59 15° NW 03:34:22 10° NNW visible
26 Apr 6.8 01:43:33 15° NNE 01:43:33 15° NNE 01:44:39 10° NNE visible
26 Apr 6.4 03:25:54 15° NW 03:25:54 15° NW 03:27:10 10° NNW visible
27 Apr 6.8 01:36:27 15° NNE 01:36:27 15° NNE 01:37:29 10° NNE visible
27 Apr 6.5 03:18:48 14° NNW 03:18:48 14° NNW 03:19:58 10° NNW visible
28 Apr 6.8 01:29:21 15° NNE 01:29:21 15° NNE 01:30:20 10° NNE visible
28 Apr 6.5 03:11:42 14° NNW 03:11:42 14° NNW 03:12:46 10° NNW visible
